Franklin, PA

11:51 PM EST on November 14, 2019 (GMT -0500)
Venango Regional

Weather History for KFKL - September, 2019

Change the Weather History Date:

Saturday, September 21, 2019

  Actual Average Record
Temperature  
Mean Temperature 68 °F -  
Max Temperature 82 °F 72 °F 90 °F (1931)
Min Temperature 54 °F 50 °F 32 °F (1929)
Cooling Degree Days 3    
Growing Degree Days 18 (Base 50)    
Moisture  
Dew Point 62 °F    
Average Humidity 79    
Maximum Humidity 97    
Minimum Humidity 58    
Precipitation  
Precipitation 0.00 in - - ()
Sea Level Pressure  
Sea Level Pressure 30.21 in    
Wind  
Wind Speed 2 mph (SSW)    
Max Wind Speed 7 mph    
Max Gust Speed -    
Visibility 10 miles    
Events      
Averages and records for this station are not official NWS values.
T = Trace of Precipitation, MM = Missing Value Source: NWS Daily Summary

Daily Weather History Graph

Daily Weather History Graph

Search for Another Location

Airport or City:

Astronomy

Sep. 21, 2019 Rise Set
Actual Time 7:05 AM EDT 7:18 PM EDT
Civil Twilight 6:38 AM EDT 7:46 PM EDT
Nautical Twilight 6:05 AM EDT 8:18 PM EDT
Astronomical Twilight 5:32 AM EDT 8:51 PM EDT
Moon 11:50 PM EDT (9/21) 2:14 PM EDT (9/21)
Length of Visible Light 13h 08m
Length of Day
12h 13m
Waning Gibbous, 55% of the Moon is Illuminated
Sep 21
Waning Gibbous
Sep 21
Last Quarter
Sep 28
New
Oct 5
First Quarter
Oct 13
Full

Hourly Weather History & Observations

Time (EDT) Temp. Heat Index Dew Point Humidity Pressure Visibility Wind Dir Wind Speed Gust Speed Precip Events Conditions
12:56 AM 57.9 °F - 57.0 °F 97% 30.23 in 10.0 mi Calm Calm - N/A   Clear
1:56 AM 57.9 °F - 55.9 °F 93% 30.23 in 10.0 mi Calm Calm - N/A   Partly Cloudy
2:56 AM 55.9 °F - 55.0 °F 97% 30.22 in 8.0 mi NNE 3.5 mph - N/A   Clear
3:56 AM 55.9 °F - 54.0 °F 93% 30.22 in 10.0 mi Calm Calm - N/A   Clear
4:56 AM 55.0 °F - 54.0 °F 96% 30.23 in 10.0 mi Calm Calm - N/A   Clear
5:56 AM 54.0 °F - 53.1 °F 97% 30.23 in 10.0 mi NE 3.5 mph - N/A   Clear
6:56 AM 55.0 °F - 53.1 °F 93% 30.25 in 10.0 mi Calm Calm - N/A   Clear
7:56 AM 57.0 °F - 55.0 °F 93% 30.26 in 10.0 mi Calm Calm - N/A   Partly Cloudy
8:56 AM 60.1 °F - 55.9 °F 86% 30.27 in 10.0 mi ESE 4.6 mph - N/A   Scattered Clouds
9:56 AM 68.0 °F - 60.1 °F 76% - 10.0 mi SSE 4.6 mph - N/A   Clear
10:56 AM 71.1 °F - 62.1 °F 73% 30.26 in 10.0 mi South 4.6 mph - N/A   Partly Cloudy
11:56 AM 75.0 °F - 64.9 °F 71% 30.25 in 10.0 mi South 4.6 mph - N/A   Clear
12:56 PM 78.1 °F - 66.9 °F 68% 30.23 in 10.0 mi SSW 6.9 mph - N/A   Clear
1:44 PM 80.6 °F 83.2 °F 68.0 °F 65% 30.23 in 10.0 mi SSW 6.9 mph - N/A   Mostly Cloudy
1:56 PM 79.0 °F - 66.9 °F 66% 30.20 in 10.0 mi Variable 5.8 mph - N/A   Mostly Cloudy
2:14 PM 82.4 °F 84.6 °F 66.2 °F 58% 30.21 in 10.0 mi Variable 5.8 mph - N/A   Mostly Cloudy
2:56 PM 80.1 °F 82.1 °F 66.0 °F 62% 30.19 in 10.0 mi SSW 4.6 mph - N/A   Partly Cloudy
3:56 PM 81.0 °F 82.7 °F 64.9 °F 58% 30.18 in 10.0 mi WNW 5.8 mph - N/A   Partly Cloudy
4:56 PM 81.0 °F 83.0 °F 66.0 °F 60% 30.18 in 10.0 mi West 4.6 mph - N/A   Scattered Clouds
5:56 PM 81.0 °F 83.0 °F 66.0 °F 60% 30.18 in 10.0 mi Calm Calm - N/A   Clear
6:56 PM 78.1 °F - 66.0 °F 66% 30.17 in 10.0 mi Calm Calm - N/A   Clear
7:56 PM 71.1 °F - 66.0 °F 84% 30.18 in 10.0 mi NNW 3.5 mph - N/A   Partly Cloudy
8:56 PM 70.0 °F - 66.0 °F 87% 30.19 in 10.0 mi SW 3.5 mph - N/A   Mostly Cloudy
9:56 PM 70.0 °F - 66.0 °F 87% 30.19 in 10.0 mi Calm Calm - N/A   Partly Cloudy
10:56 PM 69.1 °F - 64.9 °F 87% 30.19 in 10.0 mi SSW 3.5 mph - N/A   Partly Cloudy
11:56 PM 66.9 °F - 64.9 °F 93% 30.19 in 9.0 mi SSW 5.8 mph - N/A   Clear